KINEIS-4E

Last updated on Thu Sep 24 2026 00:03:12 GMT+0000 (Coordinated Universal Time)

1 63300U 25056A 26266.58904190 .00001013 00000+0 16784-3 0 9991 2 63300 97.9148 27.8166 0001733 159.3797 200.7481 14.72325784 81607
UTC large
Height (km)
Speed (km/s)
/
Latitude / Longitude
Inclination (degrees)
Orbital Period (minutes)
Azimuth
Elevation
Range (km)
Doppler Factor

Next 0 passes for location: London (51.5072 / 0.1276)

No passes found over London.
KINEIS-4E